Location: Asheville, NC
(35.6000°N, 82.5500°W)
Time: 18:47:56
(UTC-05:00)

Vanguard 1 Rocket - Pass Details

Date: 09 February 2018
Orbit: 655 x 4222 km, 34.3° (Epoch: 16 February)

Event Time Altitude Azimuth Distance (km) Brightness Sun altitude
Rises 09:09:34 0° 286° (WNW) 6,984 11.3 18.6°
Reaches altitude 10° 09:15:53 10° 277° (W) 5,303 10.9 19.7°
Maximum altitude 09:26:22 26° 228° (SW) 2,938 10.0 21.4°
Drops below altitude 10° 09:32:54 10° 175° (S) 3,180 11.0 22.4°
Sets 09:35:37 0° 161° (SSE) 3,806 11.5 22.9°
